PPR-pyyntö

Ennakkolupa on pakollinen lentoonlähtöjä ja laskuja varten. Pyydä ennakkolupa tästä lentopäivänä.

Laskukierrosvaraus

Tee ensin PPR-pyyntö, sitten vasta laskukierrosvaraus. Hinta 5 € / 15 min.

Aerodrome Info

Updated 23 AUG 2019 19:51 LT

  • Bird activity at airfield.
  • Preferred runway: RWY
  • Obstacle (crane) west of airfield ABM THR RWY36
  • Obstacle (crane) 1,5NM NW FM ARP.

Contact duty officer at +358 20 7545 129 for more information.

Remember to close your flight plan: ACC tel. +358 3 286 5172

Weather


Helsinki Malmi lentokenttä
AWS ILHF 232240Z AUTO 27004KT 9999 FEW013 15/14 Q1016=



Helsinki-Malmin lentoasema

Tervetuloa Helsinki-Malmin lentokentälle

Malmin lentokenttäyhdistys ry toimii Suomen vilkkaimman yleisilmailukentän, Helsinki-Malmin operaattorina. Yhdistyksen toiminnassa ovat mukana kentällä toimivat yhteisöt sekä suuri joukko yleisilmailijoita.

Malmin lentokentän toiminta rahoitetaan jäsen- ja kausikorttimaksuin. Ole mukana jatkamassa Malmin lentotoimintaa ja liity jäseneksi!